星链-35658(STARLINK-35658)

导读 | 豆包AI

STARLINK-35658是美国于2025年10月22日发射的星链卫星,隶属于SpaceX公司的星链星座项目。星链项目旨在构建全球卫星互联网星座,为全球多地提供高速低延迟的宽带互联网服务,该卫星加入后将进一步扩充星链星座的规模,提升系统服务覆盖能力与稳定性。

基本信息
目录编号:
66126
目录名称:
STARLINK-35658
国际标识:
2025-237N
轨道中心:
EARTH
卫星名称:
星链-35658
卫星全名:
星链-35658(STARLINK-35658)
卫星状态:
在轨 (已飞行143 天)
发射日期:
2025-10-22 UTC
国别 :
美国 (US)
星等 :
--
轨道信息
数据来源 国际轨道数据
星历时间: 2026-03-14T04:47:51+0800
9小时前
查看轨道信息
半长轴: 6853.3km
偏心率: 0.0002647
轨道倾角: 53.159°
近地点辐角 109.467°
升交点赤经 19.962°
平近点角 250.662°
近地点: 473.348km
远地点: 476.978km
周期: 94.104分钟
每日圈数: 15.302175
详细信息
固有亮度:
5
最大亮度:
2.5
卫星平台:
Starlink V1.0
覆盖范围:
全球
运营商:
太空探索技术公司
运营商所在国:
美国
制造商(研发单位):
太空探索技术公司
制造商所在国:
美国
使用方式:
暂无
卫星简介
Starlink 计划是 SpaceX 推出的全球卫星互联网项目,通过发射低轨道卫星,为全球尤其是偏远地区提供高速、低延迟的互联网服务。自 2019 年起,Starlink 已部署数千颗卫星,旨在缩小全球数字鸿沟,推动互联网普及。该项目还为军事、航空等行业提供通信支持,带来广泛经济效益。
2D轨道图
3D轨道图
轨道高度分析图
轨道倾角分析图
轨道综合分析图
查看轨道综合分析图